Weather History for KRWI - December, 2012

Change the Weather History Date:

Monday, December 17, 2012

  Actual Average Record
Temperature  
Mean Temperature 60 °F -  
Max Temperature 64 °F 53 °F 77 °F (1971)
Min Temperature 55 °F 32 °F 12 °F (1958)
Degree Days  
Heating Degree Days 6    
Growing Degree Days 10 (Base 50)    
Moisture  
Dew Point 55 °F    
Average Humidity 89    
Maximum Humidity 100    
Minimum Humidity 73    
Precipitation  
Precipitation 0.49 in - - ()
Sea Level Pressure  
Sea Level Pressure 29.81 in    
Wind  
Wind Speed 5 mph (SSW)    
Max Wind Speed 16 mph    
Max Gust Speed 25 mph    
Visibility 7 miles    
Events Rain    
Averages and records for this station are not official NWS values.
T = Trace of Precipitation, MM = Missing Value Source: NWS Daily Summary

Daily Weather History Graph

Daily Weather History Graph

Search for Another Location

Airport or City:

Trip Planner

Search our weather history database for the weather conditions in past years. The results will help you decide how hot, cold, wet, or windy it might be!

Date:

Astronomy

Dec. 17, 2012 Rise Set
Actual Time 7:16 AM EST 4:59 PM EST
Civil Twilight 6:47 AM EST 5:28 PM EST
Nautical Twilight 6:15 AM EST 6:00 PM EST
Astronomical Twilight 5:44 AM EST 6:31 PM EST
Moon 10:31 AM EST (12/17) 10:10 PM EST (12/17)
Length of Visible Light 10h 41m
Length of Day
9h 43m
Waxing Crescent, 24% of the Moon is Illuminated
Dec 17
Waxing Crescent
Dec 20
First Quarter
Dec 28
Full
Jan 4
Last Quarter
Jan 11
New

Hourly Weather History & Observations

Time (EST) Temp. Dew Point Humidity Pressure Visibility Wind Dir Wind Speed Gust Speed Precip Events Conditions
12:22 AM 57.2 °F 55.4 °F 94% 29.91 in 3.0 mi SW 5.8 mph - 0.05 in Rain Rain
12:29 AM 57.2 °F 55.4 °F 94% 29.91 in 2.0 mi SW 5.8 mph - 0.08 in Rain Rain
12:48 AM 57.2 °F 55.4 °F 94% 29.89 in 5.0 mi SSW 4.6 mph - 0.11 in Rain Light Rain
12:53 AM 57.0 °F 55.0 °F 93% 29.90 in 6.0 mi SSW 3.5 mph - 0.11 in Rain Light Rain
1:53 AM 55.9 °F 55.0 °F 97% 29.88 in 6.0 mi Calm Calm - 0.01 in   Overcast
2:53 AM 55.9 °F 54.0 °F 93% 29.88 in 4.0 mi Calm Calm - 0.01 in Rain Light Rain
3:02 AM 55.4 °F 53.6 °F 94% 29.88 in 2.5 mi Calm Calm - 0.00 in Rain Light Rain
3:12 AM 55.4 °F 53.6 °F 94% 29.86 in 1.2 mi North 4.6 mph - 0.01 in Rain Light Rain
3:26 AM 55.4 °F 53.6 °F 94% 29.87 in 2.5 mi Calm Calm - 0.01 in Rain Light Rain
3:33 AM 55.4 °F 53.6 °F 94% 29.86 in 2.5 mi Calm Calm - 0.03 in Rain Light Rain
3:53 AM 55.9 °F 55.0 °F 97% 29.86 in 2.0 mi South 3.5 mph - 0.09 in Rain Rain
4:06 AM 55.4 °F 55.4 °F 100% 29.85 in 1.8 mi Calm Calm - 0.07 in Rain Heavy Rain
4:32 AM 55.4 °F 55.4 °F 100% 29.85 in 3.0 mi SSE 4.6 mph - 0.20 in Rain Light Rain
4:53 AM 55.9 °F 55.0 °F 97% 29.84 in 4.0 mi South 6.9 mph - 0.24 in Rain Light Rain
5:53 AM 55.9 °F 55.0 °F 97% 29.81 in 5.0 mi SSE 4.6 mph - 0.03 in Rain Light Rain
5:59 AM 55.4 °F 55.4 °F 100% 29.80 in 5.0 mi SSE 4.6 mph - 0.00 in Rain Light Rain
6:53 AM 55.9 °F 55.0 °F 97% 29.76 in 5.0 mi SSE 8.1 mph - 0.00 in   Overcast
7:53 AM 57.0 °F 55.0 °F 93% 29.85 in 10.0 mi NW 8.1 mph - N/A   Overcast
8:32 AM 57.2 °F 55.4 °F 94% 29.84 in 10.0 mi North 5.8 mph - N/A   Overcast
8:53 AM 57.0 °F 55.0 °F 93% 29.86 in 10.0 mi WNW 3.5 mph - N/A   Overcast
9:51 AM 57.2 °F 55.4 °F 94% 29.85 in 10.0 mi SSE 3.5 mph - N/A   Overcast
9:53 AM 57.9 °F 55.9 °F 93% 29.85 in 10.0 mi Calm Calm - N/A   Overcast
10:53 AM 62.1 °F 57.0 °F 84% 29.84 in 10.0 mi South 3.5 mph - N/A   Partly Cloudy
11:53 AM 64.0 °F 55.9 °F 75% 29.81 in 10.0 mi Variable 3.5 mph - N/A   Clear
12:53 PM 64.0 °F 55.0 °F 73% 29.78 in 10.0 mi WSW 3.5 mph - N/A   Clear
1:53 PM 64.0 °F 55.9 °F 75% 29.76 in 10.0 mi South 8.1 mph - N/A   Scattered Clouds
2:53 PM 64.0 °F 55.9 °F 75% 29.77 in 10.0 mi South 5.8 mph - N/A   Mostly Cloudy
3:53 PM 63.0 °F 55.9 °F 78% 29.77 in 10.0 mi South 4.6 mph - N/A   Overcast
4:19 PM 62.6 °F 55.4 °F 77% 29.78 in 10.0 mi South 8.1 mph - N/A   Overcast
4:53 PM 61.0 °F 55.9 °F 83% 29.77 in 10.0 mi South 9.2 mph - N/A   Overcast
7:53 PM 59.0 °F 55.0 °F 87% 29.68 in 10.0 mi South 11.5 mph - 0.00 in   Overcast
8:53 PM 60.1 °F 53.1 °F 78% 29.61 in 10.0 mi South 16.1 mph 25.3 mph N/A   Mostly Cloudy
9:18 PM 60.8 °F 53.6 °F 77% 29.70 in 10.0 mi West 12.7 mph 24.2 mph N/A   Scattered Clouds
9:53 PM 60.1 °F 53.1 °F 78% 29.68 in 10.0 mi SW 10.4 mph - N/A   Clear
10:53 PM 59.0 °F 53.1 °F 81% 29.68 in 10.0 mi SSW 11.5 mph - N/A   Overcast
11:53 PM 59.0 °F 53.1 °F 81% 29.66 in 10.0 mi South 10.4 mph - N/A   Scattered Clouds